Regional Weather Roundup
Issued by NWS State College, PA

Home | Current Version | Previous Version | Graphics & Text | Print | Product List | Glossary Off
Versions: 1 2 3 4 5 6 7 8 9 10 11 12 13 14 15 16 17 18 19 20 21 22 23 24 25 26 27 28 29 30 31 32 33 34 35 36 37 38 39 40 41 42 43 44 45 46 47 48 49 50

000
ASUS41 KCTP 280803
RWRCTP

REGIONAL WEATHER ROUNDUP
NATIONAL WEATHER SERVICE STATE COLLEGE PA
400 AM EDT SAT MAR 28 2015

Note: "fair" indicates few or no clouds below 12,000 feet with no
significant weather and/or obstructions to visibility.

* = STATION THAT DOES NOT REPORT PRECIPITATION /E.G. RAIN...SNOW...ETC/
    THUNDER OR FOG.

PAZ002>004-007>009-013>016-020>023-029>032-280900-
WESTERN PENNSYLVANIA

CITY           SKY/WX    TMP DP  RH WIND       PRES   REMARKS
ERIE           CLOUDY    17  10  74 NW12      30.06S WCI   4
MEADVILLE      LGT SNOW  14   9  80 W7        29.98F WCI   4
FRANKLIN*      MOCLDY    12   3  67 W6        29.97F WCI   3
NEW CASTLE     CLOUDY    14   5  67 NW12      30.04F WCI   0
BEAVER COUNTY  NOT AVBL
BUTLER*        CLOUDY    16   9  73 N13G18    30.00R WCI   2
PITTSBURGH INT PTCLDY    16   6  65 NW13      29.99F WCI   2
PITTSBURGH     CLEAR     17   5  59 NW10      29.97S WCI   5
INDIANA*       CLOUDY    19  10  68 N8G15     29.97S WCI   9
LATROBE        MOCLDY    18   7  62 NW13      29.98F WCI   4
WASHINGTON CO* CLEAR     16   3  57 NW5       30.01S WCI   9
$$

PAZ004>006-010>012-017>019-024>028-033>037-041-042-045-046-049>053-280900-
CENTRAL PENNSYLVANIA

CITY           SKY/WX    TMP DP  RH WIND       PRES   REMARKS
BRADFORD       LGT SNOW  13   8  81 NW9       29.87S WCI   1
DUBOIS         MOCLDY    17   8  67 NW8       29.88F WCI   7
CLEARFIELD     LGT SNOW  20  14  77 VRB7      29.89F WCI  11
JOHNSTOWN      PTCLDY    15   7  70 NW15      29.83F WCI   0
ALTOONA        CLEAR     20   7  57 NW17G24   29.88S WCI   5
STATE COLLEGE  CLOUDY    24  12  60 NW6       29.88S
WILLIAMSPORT   CLOUDY    29  17  61 N8        29.88S
SELINSGROVE    FLURRIES  30  25  81 NW7       29.87S
FT INDIANTOWN  CLOUDY    32  23  69 N7        29.84R
CAPITAL CITY   CLOUDY    32  23  69 NW9       29.86R
HARRISBURG     CLOUDY    33  23  66 NW9       29.85S
YORK           MOCLDY    31  19  61 NW10      29.85S
$$

PAZ038>040-043-044-047-048-054-055-060>062-067>071-280900-
EASTERN PENNSYLVANIA

CITY           SKY/WX    TMP DP  RH WIND       PRES   REMARKS
SCRANTON       CLOUDY    30  17  58 NE12      29.81F
MOUNT POCONO   CLOUDY    25  16  68 N12G20    29.73S WCI  14
ALLENTOWN      MOCLDY    32  20  61 N12       29.81S
QUAKERTOWN*    MOSUNNY   32  23  69 N6        29.81R
READING        CLOUDY    34  20  56 N10       29.83R
LANCASTER      CLOUDY    34  26  72 N9        29.83R
COATESVILLE    CLOUDY    34  27  75 NW7       29.81R
POTTSTOWN      CLOUDY    34  23  64 N12       29.83R
BLUE BELL      CLOUDY    36  28  75 NW6       29.79S
DOYLESTOWN     CLOUDY    32  23  69 NW10G21   29.78S
WILLOW GROVE   NOT AVBL
NORTH PHILA    CLOUDY    37  22  54 N14       29.80S
PHILADELPHIA   MOCLDY    38  25  59 NW17      29.80S
$$



USA.gov is the U.S. government's official web portal to all federal, state and local government web resources and services.